DW3845 Weather Reports


Display with metric or nautical units.
time (UTC)temp
F
wind
direction
speed
MPH
gust
MPH
rain 1hr
in
rain 24hr
in
rain mn
in
humidity
%
barometer
mb
20260831024534 59 38 1.0 1.0 0.00 0.03 0.03 53 1001.0
20260831023033 62 50 0.0 1.0 0.00 0.03 0.03 45 1000.9
20260831021532 64 50 0.0 0.0 0.00 0.03 0.03 44 1000.7
20260831020032 65 50 0.0 1.0 0.00 0.03 0.03 43 1000.8
20260831014530 66 174 0.0 0.0 0.00 0.03 0.03 43 1000.9
20260831013029 66 177 0.0 3.0 0.00 0.03 0.03 39 1000.9
20260831011529 67 155 0.0 3.0 0.00 0.03 0.03 39 1000.9
20260831010048 67 172 0.0 3.0 0.00 0.03 0.03 39 1000.9
20260831004527 67 169 0.0 5.0 0.00 0.03 0.03 38 1000.9
20260831003031 67 162 0.0 4.0 0.00 0.03 0.03 39 1000.8
20260831001525 67 197 0.0 3.0 0.00 0.03 0.03 40 1000.8
20260831000025 68 239 0.0 2.0 0.00 0.03 0.03 38 1000.8
20260830234526 68 173 2.0 8.0 0.00 0.03 0.03 37 1000.9
20260830233033 68 168 2.0 7.0 0.00 0.03 0.03 38 1001.1
20260830231522 67 158 1.0 6.0 0.00 0.03 0.03 39 1001.1
20260830230021 68 165 2.0 6.0 0.00 0.03 0.03 39 1001.2
20260830224520 67 247 2.0 7.0 0.00 0.03 0.03 40 1001.3
20260830223019 67 137 0.0 3.0 0.00 0.03 0.03 41 1001.4
20260830221519 68 160 0.0 4.0 0.00 0.03 0.03 41 1001.4
20260830220018 69 111 1.0 5.0 0.00 0.03 0.03 41 1001.6
20260830214521 67 119 2.0 5.0 0.00 0.03 0.03 41 1001.7
20260830213015 68 162 1.0 6.0 0.00 0.03 0.03 41 1001.9
20260830211512 67 260 2.0 10.0 0.00 0.03 0.03 42 1002.0
20260830210010 67 245 0.0 6.0 0.00 0.03 0.03 44 1002.2
20260830204510 66 129 3.0 7.0 0.00 0.03 0.03 44 1002.3
20260830203012 65 142 1.0 7.0 0.00 0.03 0.03 47 1002.1
20260830201605 62 317 0.0 4.0 0.00 0.03 0.03 50 1002.1
20260830200057 61 37 0.0 1.0 0.00 0.03 0.03 54 1002.3
20260830194555 60 109 0.0 4.0 0.00 0.03 0.03 54 1002.3
20260830193052 59 19 0.0 1.0 0.00 0.03 0.03 57 1002.4
20260830191547 57 281 0.0 1.0 0.00 0.03 0.03 61 1002.5
20260830190044 56 64 0.0 2.0 0.00 0.03 0.03 64 1002.6
20260830184548 56 348 0.0 2.0 0.00 0.03 0.03 69 1002.7
20260830183042 56 71 0.0 2.0 0.00 0.03 0.03 69 1002.7
20260830181543 56 143 0.0 2.0 0.00 0.03 0.03 71 1002.7
20260830180041 56 273 0.0 2.0 0.00 0.03 0.03 69 1002.7
20260830174534 54 167 0.0 0.0 0.00 0.03 0.03 74 1002.7
20260830173031 53 169 0.0 1.0 0.00 0.03 0.03 78 1002.6
20260830171528 52 276 0.0 1.0 0.00 0.03 0.03 82 1002.6
20260830170027 51 193 0.0 1.0 0.00 0.03 0.03 84 1002.6
20260830164525 51 37 0.0 0.0 0.00 0.03 0.03 81 1002.6
20260830163028 51 37 0.0 0.0 0.00 0.03 0.03 83 1002.4
20260830161523 51 37 0.0 1.0 0.00 0.03 0.03 79 1002.4
20260830160021 51 37 0.0 0.0 0.00 0.03 0.03 77 1002.3
20260830154521 51 37 0.0 0.0 0.00 0.03 0.03 76 1002.2
20260830153019 51 37 0.0 1.0 0.00 0.03 0.03 72 1002.1
20260830151516 51 37 0.0 1.0 0.00 0.03 0.03 69 1001.8
20260830150030 50 38 0.0 0.0 0.00 0.03 0.03 69 1001.7
20260830144515 50 39 0.0 1.0 0.00 0.03 0.03 69 1001.6
20260830143011 49 39 0.0 1.0 0.00 0.03 0.03 70 1001.4
20260830141510 49 38 0.0 0.0 0.00 0.03 0.03 70 1001.3
20260830140009 49 38 0.0 0.0 0.00 0.03 0.03 71 1001.2
20260830134508 49 38 0.0 0.0 0.00 0.03 0.03 71 1001.3
20260830133007 49 39 0.0 0.0 0.00 0.03 0.03 72 1001.0
20260830131505 49 333 0.0 0.0 0.00 0.03 0.03 73 1001.0
20260830130005 49 65 0.0 1.0 0.00 0.03 0.03 74 1000.8
20260830124503 49 40 1.0 2.0 0.00 0.03 0.03 74 1000.9
20260830123002 49 359 0.0 1.0 0.01 0.03 0.03 76 1000.6
20260830121502 49 34 0.0 2.0 0.02 0.03 0.03 76 1000.5
20260830120100 49 329 0.0 2.0 0.03 0.03 0.03 77 1000.6
20260830114609 49 54 0.0 0.0 0.03 0.03 0.03 78 1000.8
20260830113101 49 54 0.0 1.0 0.02 0.02 0.02 81 1000.9
20260830111557 49 54 0.0 1.0 0.01 0.01 0.01 83 1001.0
20260830110054 50 54 1.0 1.0 0.00 0.00 0.00 82 1000.8
20260830104551 51 54 0.0 0.0 0.00 0.00 0.00 75 1000.7
20260830103049 51 54 0.0 2.0 0.00 0.00 0.00 73 1000.4
20260830101550 50 54 0.0 1.0 0.00 0.00 0.00 73 1000.4
20260830100047 51 54 0.0 2.0 0.00 0.00 0.00 72 1000.3
20260830094546 51 54 1.0 1.0 0.00 0.00 0.00 72 1000.2
20260830093044 50 54 0.0 1.0 0.00 0.00 0.00 72 1000.2
20260830091543 50 54 0.0 1.0 0.00 0.00 0.00 73 1000.3
20260830090057 50 54 0.0 2.0 0.00 0.00 0.00 73 1000.3
20260830084544 50 54 1.0 2.0 0.00 0.00 0.00 73 1000.3
20260830083045 50 54 0.0 1.0 0.00 0.00 0.00 73 1000.2
20260830081537 50 54 1.0 2.0 0.00 0.00 0.00 73 1000.1
20260830080035 49 54 0.0 1.0 0.00 0.00 0.00 72 1000.0
20260830074533 49 54 0.0 2.0 0.00 0.00 0.00 73 999.8
20260830073035 49 46 2.0 3.0 0.00 0.00 0.00 72 999.7
20260830071529 49 46 1.0 2.0 0.00 0.00 0.00 72 999.8
20260830070027 49 46 0.0 2.0 0.00 0.00 0.00 72 999.8
20260830064532 49 46 1.0 2.0 0.00 0.00 0.00 71 999.9
20260830063026 48 46 1.0 3.0 0.00 0.00 0.00 72 999.9
20260830061530 49 50 0.0 3.0 0.00 0.00 0.00 71 999.7
20260830060025 50 3 0.0 2.0 0.00 0.00 0.00 69 999.6
20260830054530 50 338 0.0 1.0 0.00 0.00 0.00 68 999.8
20260830053023 50 88 0.0 1.0 0.00 0.00 0.00 69 999.8
20260830051524 50 44 0.0 1.0 0.00 0.00 0.00 67 999.7
20260830050022 52 44 0.0 2.0 0.00 0.00 0.00 64 999.6
20260830044527 53 333 0.0 2.0 0.00 0.00 0.00 60 999.4
20260830043021 54 85 0.0 2.0 0.00 0.00 0.00 59 999.4
20260830041519 56 274 0.0 2.0 0.00 0.00 0.00 56 999.3
20260830040018 56 293 1.0 5.0 0.00 0.00 0.00 54 999.3
20260830034526 57 188 1.0 6.0 0.00 0.00 0.00 51 999.2
20260830033017 58 269 3.0 9.0 0.00 0.00 0.00 50 999.1
20260830031514 59 295 0.0 4.0 0.00 0.00 0.00 49 998.8
20260830030014 59 276 2.0 7.0 0.00 0.00 0.00 48 998.8